Buckeye, AZ

5:42 PM MST on October 22, 2019 (GMT -0700)
Buckeye Municipal

Weather History for KBXK - September, 2019

Change the Weather History Date:

Wednesday, September 18, 2019

  Actual Average (WUND) Record (WUND)
Temperature  
Mean Temperature 84 °F -  
Max Temperature 98 °F - - (-1)
Min Temperature 69 °F - - (-1)
Cooling Degree Days 18    
Growing Degree Days 34 (Base 50)    
Moisture  
Dew Point 54 °F    
Average Humidity 41    
Maximum Humidity 83    
Minimum Humidity 17    
Precipitation  
Precipitation 0.00 in - - ()
Sea Level Pressure  
Sea Level Pressure 29.82 in    
Wind  
Wind Speed 4 mph ()    
Max Wind Speed 12 mph    
Max Gust Speed -    
Visibility 10.0 miles    
Events      
Averages and records for this station are not official NWS values.
T = Trace of Precipitation, MM = Missing Value Source: Averaged Metar Reports

Daily Weather History Graph

Daily Weather History Graph

Search for Another Location

Airport or City:

Astronomy

Sep. 18, 2019 Rise Set
Actual Time 6:16 AM MST 6:33 PM MST
Civil Twilight 5:51 AM MST 6:57 PM MST
Nautical Twilight 5:22 AM MST 7:27 PM MST
Astronomical Twilight 4:52 AM MST 7:56 PM MST
Moon 9:21 PM MST (9/18) 10:11 AM MST (9/18)
Length of Visible Light 13h 06m
Length of Day
12h 17m
Waning Gibbous, 82% of the Moon is Illuminated
Sep 18
Waning Gibbous
Sep 21
Last Quarter
Sep 28
New
Oct 5
First Quarter
Oct 13
Full

Hourly Weather History & Observations

Time (MST) Temp. Heat Index Dew Point Humidity Pressure Visibility Wind Dir Wind Speed Gust Speed Precip Events Conditions
12:15 AM 75.2 °F - 66.2 °F 73% 29.83 in 10.0 mi Calm Calm - N/A   Clear
12:35 AM 75.2 °F - 66.2 °F 73% 29.83 in 10.0 mi West 4.6 mph - N/A   Clear
12:55 AM 75.2 °F - 64.4 °F 69% 29.83 in 10.0 mi WSW 4.6 mph - N/A   Clear
1:15 AM 75.2 °F - 62.6 °F 65% 29.83 in 10.0 mi WSW 3.5 mph - N/A   Clear
1:35 AM 75.2 °F - 62.6 °F 65% 29.84 in 10.0 mi NW 5.8 mph - N/A   Clear
1:55 AM 73.4 °F - 64.4 °F 73% 29.84 in 10.0 mi North 5.8 mph - N/A   Clear
2:15 AM 73.4 °F - 60.8 °F 65% 29.83 in 10.0 mi North 4.6 mph - N/A   Clear
2:35 AM 71.6 °F - 60.8 °F 69% 29.84 in 10.0 mi North 3.5 mph - N/A   Clear
2:55 AM 71.6 °F - 57.2 °F 60% 29.84 in 10.0 mi Calm Calm - N/A   Clear
3:15 AM 71.6 °F - 60.8 °F 69% 29.83 in 10.0 mi Calm Calm - N/A   Clear
3:35 AM 71.6 °F - 62.6 °F 73% 29.84 in 10.0 mi Calm Calm - N/A   Clear
3:55 AM 71.6 °F - 64.4 °F 78% 29.83 in 10.0 mi Calm Calm - N/A   Clear
4:15 AM 71.6 °F - 64.4 °F 78% 29.83 in 10.0 mi North 5.8 mph - N/A   Clear
4:35 AM 71.6 °F - 60.8 °F 69% 29.83 in 10.0 mi North 5.8 mph - N/A   Clear
4:55 AM 71.6 °F - 59.0 °F 64% 29.84 in 10.0 mi North 6.9 mph - N/A   Clear
5:15 AM 69.8 °F - 59.0 °F 68% 29.84 in 10.0 mi North 6.9 mph - N/A   Clear
5:35 AM 71.6 °F - 57.2 °F 60% 29.84 in 10.0 mi North 6.9 mph - N/A   Clear
5:55 AM 71.6 °F - 57.2 °F 60% 29.85 in 10.0 mi Calm Calm - N/A   Clear
6:35 AM 69.8 °F - 64.4 °F 83% 29.86 in 10.0 mi ESE 4.6 mph - N/A   Clear
6:55 AM 71.6 °F - 62.6 °F 73% 29.87 in 10.0 mi ESE 4.6 mph - N/A   Clear
7:35 AM 75.2 °F - 60.8 °F 61% 29.88 in 10.0 mi Calm Calm - N/A   Clear
7:55 AM 77.0 °F - 62.6 °F 61% 29.89 in 10.0 mi Calm Calm - N/A   Clear
8:15 AM 78.8 °F - 64.4 °F 61% 29.89 in 10.0 mi Calm Calm - N/A   Clear
8:35 AM 80.6 °F 81.8 °F 62.6 °F 54% 29.89 in 10.0 mi SE 3.5 mph - N/A   Clear
8:55 AM 82.4 °F 82.9 °F 60.8 °F 48% 29.90 in 10.0 mi SE 5.8 mph - N/A   Clear
9:15 AM 82.4 °F 82.5 °F 59.0 °F 45% 29.90 in 10.0 mi SSE 4.6 mph - N/A   Clear
9:35 AM 84.2 °F 83.5 °F 57.2 °F 40% 29.90 in 10.0 mi SE 4.6 mph - N/A   Clear
9:55 AM 86.0 °F - 51.8 °F 31% 29.90 in 10.0 mi SSE 5.8 mph - N/A   Clear
10:15 AM 86.0 °F 84.2 °F 53.6 °F 33% 29.90 in 10.0 mi SE 4.6 mph - N/A   Clear
10:35 AM 87.8 °F - 50.0 °F 27% 29.90 in 10.0 mi SE 4.6 mph - N/A   Clear
10:55 AM 89.6 °F - 50.0 °F 26% 29.89 in 10.0 mi SE 4.6 mph - N/A   Clear
11:15 AM 89.6 °F - 46.4 °F 22% 29.89 in 10.0 mi SE 5.8 mph - N/A   Clear
11:35 AM 91.4 °F - 46.4 °F 21% 29.88 in 10.0 mi ESE 4.6 mph - N/A   Clear
11:55 AM 93.2 °F - 42.8 °F 17% 29.87 in 10.0 mi Variable 4.6 mph - N/A   Clear
12:15 PM 93.2 °F - 46.4 °F 20% 29.87 in 9.0 mi Calm Calm - N/A   Clear
12:35 PM 95.0 °F - 44.6 °F 18% 29.86 in 10.0 mi SSW 4.6 mph - N/A   Clear
12:55 PM 95.0 °F - 46.4 °F 19% 29.85 in 10.0 mi Calm Calm - N/A   Clear
1:15 PM 95.0 °F - 50.0 °F 22% 29.84 in 10.0 mi Variable 5.8 mph - N/A   Clear
1:35 PM 95.0 °F - 48.2 °F 20% 29.84 in 10.0 mi Calm Calm - N/A   Clear
1:55 PM 96.8 °F - 48.2 °F 19% 29.83 in 10.0 mi Calm Calm - N/A   Unknown
2:15 PM 96.8 °F - 48.2 °F 19% 29.82 in 10.0 mi Calm Calm - N/A   Unknown
2:35 PM 96.8 °F - 48.2 °F 19% 29.81 in 10.0 mi Calm Calm - N/A   Unknown
2:55 PM 96.8 °F - 48.2 °F 19% 29.80 in 10.0 mi Calm Calm - N/A   Clear
3:15 PM 96.8 °F - 50.0 °F 20% 29.79 in 10.0 mi Calm Calm - N/A   Clear
3:35 PM 98.6 °F - 50.0 °F 19% 29.79 in 10.0 mi South 3.5 mph - N/A   Clear
3:55 PM 98.6 °F - 50.0 °F 19% 29.78 in 10.0 mi SSE 6.9 mph - N/A   Clear
4:15 PM 98.6 °F - 50.0 °F 19% 29.78 in 10.0 mi South 4.6 mph - N/A   Clear
4:35 PM 98.6 °F - 48.2 °F 18% 29.77 in 10.0 mi SW 8.1 mph - N/A   Clear
4:55 PM 98.6 °F - 46.4 °F 17% 29.77 in 10.0 mi WSW 11.5 mph - N/A   Clear
5:15 PM 98.6 °F - 46.4 °F 17% 29.76 in 10.0 mi WSW 10.4 mph - N/A   Clear
5:35 PM 98.6 °F - 48.2 °F 18% 29.76 in 10.0 mi West 8.1 mph - N/A   Clear
5:55 PM 96.8 °F - 48.2 °F 19% 29.76 in 10.0 mi SW 9.2 mph - N/A   Clear
6:15 PM 95.0 °F - 50.0 °F 22% 29.76 in 10.0 mi WSW 6.9 mph - N/A   Clear
6:35 PM 93.2 °F 90.8 °F 53.6 °F 26% 29.75 in 10.0 mi West 5.8 mph - N/A   Clear
6:55 PM 91.4 °F 89.1 °F 53.6 °F 28% 29.75 in 10.0 mi WSW 5.8 mph - N/A   Clear
7:15 PM 89.6 °F 87.3 °F 53.6 °F 29% 29.75 in 10.0 mi WSW 4.6 mph - N/A   Clear
7:35 PM 89.6 °F 87.7 °F 55.4 °F 31% 29.76 in 10.0 mi Calm Calm - N/A   Clear
7:55 PM 87.8 °F 85.7 °F 53.6 °F 31% 29.77 in 10.0 mi West 3.5 mph - N/A   Clear
8:15 PM 87.8 °F 86.1 °F 55.4 °F 33% 29.77 in 10.0 mi West 5.8 mph - N/A   Clear
8:35 PM 86.0 °F 84.5 °F 55.4 °F 35% 29.77 in 10.0 mi West 8.1 mph - N/A   Clear
8:55 PM 86.0 °F - 51.8 °F 31% 29.77 in 10.0 mi West 9.2 mph - N/A   Clear
9:15 PM 86.0 °F - 50.0 °F 29% 29.78 in 10.0 mi West 8.1 mph - N/A   Clear
9:35 PM 84.2 °F - 48.2 °F 29% 29.78 in 10.0 mi WNW 5.8 mph - N/A   Clear
9:55 PM 82.4 °F - 51.8 °F 35% 29.78 in 10.0 mi NNE 4.6 mph - N/A   Clear
10:35 PM 80.6 °F - 51.8 °F 37% 29.78 in 10.0 mi NNW 5.8 mph - N/A   Clear
10:55 PM 80.6 °F - 50.0 °F 34% 29.78 in 10.0 mi North 6.9 mph - N/A   Clear
11:15 PM 80.6 °F - 46.4 °F 30% 29.78 in 10.0 mi NNE 4.6 mph - N/A   Clear
11:35 PM 82.4 °F - 41.0 °F 23% 29.78 in 10.0 mi Calm Calm - N/A   Clear
11:55 PM 77.0 °F - 59.0 °F 54% 29.78 in 10.0 mi South 4.6 mph - N/A   Clear